Year,Month,Day,Hour,Minute,Value (Times are PST for temperature in C)
2019,03,31,00,00,6.20
2019,03,31,00,01,6.20
2019,03,31,00,02,6.20
2019,03,31,00,03,6.20
2019,03,31,00,04,6.20
2019,03,31,00,05,6.30
2019,03,31,00,06,6.30
2019,03,31,00,07,6.30
2019,03,31,00,08,6.30
2019,03,31,00,09,6.30
2019,03,31,00,10,6.30
2019,03,31,00,11,6.30
2019,03,31,00,12,6.30
2019,03,31,00,13,6.30
2019,03,31,00,14,6.30
2019,03,31,00,15,6.30
2019,03,31,00,16,6.30
2019,03,31,00,17,6.30
2019,03,31,00,18,6.30
2019,03,31,00,19,6.30
2019,03,31,00,20,6.30
2019,03,31,00,21,6.30
2019,03,31,00,22,6.20
2019,03,31,00,23,6.20
2019,03,31,00,24,6.20
2019,03,31,00,25,6.20
2019,03,31,00,26,6.20
2019,03,31,00,27,6.20
2019,03,31,00,28,6.20
2019,03,31,00,29,6.20
2019,03,31,00,30,6.20
2019,03,31,00,31,6.20
2019,03,31,00,32,6.20
2019,03,31,00,33,6.20
2019,03,31,00,34,6.20
2019,03,31,00,35,6.20
2019,03,31,00,36,6.20
2019,03,31,00,37,6.20
2019,03,31,00,38,6.20
2019,03,31,00,39,6.20
2019,03,31,00,40,6.20
2019,03,31,00,41,6.20
2019,03,31,00,42,6.20
2019,03,31,00,43,6.20
2019,03,31,00,44,6.20
2019,03,31,00,45,6.20
2019,03,31,00,46,6.20
2019,03,31,00,47,6.20
2019,03,31,00,48,6.20
2019,03,31,00,49,6.30
2019,03,31,00,50,6.30
2019,03,31,00,51,6.30
2019,03,31,00,52,6.30
2019,03,31,00,53,6.30
2019,03,31,00,54,6.40
2019,03,31,00,55,6.40
2019,03,31,00,56,6.40
2019,03,31,00,57,6.50
2019,03,31,00,58,6.60
2019,03,31,00,59,6.70
2019,03,31,01,00,6.90
2019,03,31,01,01,7.10
2019,03,31,01,02,7.30
2019,03,31,01,03,7.40
2019,03,31,01,04,7.60
2019,03,31,01,05,7.70
2019,03,31,01,06,7.70
2019,03,31,01,07,7.80
2019,03,31,01,08,7.80
2019,03,31,01,09,7.90
2019,03,31,01,10,8.00
2019,03,31,01,11,8.10
2019,03,31,01,12,8.30
2019,03,31,01,13,8.40
2019,03,31,01,14,8.50
2019,03,31,01,15,8.60
2019,03,31,01,16,8.70
2019,03,31,01,17,8.70
2019,03,31,01,18,8.80
2019,03,31,01,19,8.80
2019,03,31,01,20,8.80
2019,03,31,01,21,8.80
2019,03,31,01,22,8.80
2019,03,31,01,23,8.90
2019,03,31,01,24,8.90
2019,03,31,01,25,8.90
2019,03,31,01,26,8.90
2019,03,31,01,27,8.80
2019,03,31,01,28,8.70
2019,03,31,01,29,8.60
2019,03,31,01,30,8.60
2019,03,31,01,31,8.50
2019,03,31,01,32,8.50
2019,03,31,01,33,8.40
2019,03,31,01,34,8.40
2019,03,31,01,35,8.30
2019,03,31,01,36,8.30
2019,03,31,01,37,8.20
2019,03,31,01,38,8.10
2019,03,31,01,39,8.10
2019,03,31,01,40,8.00
2019,03,31,01,41,7.90
2019,03,31,01,42,7.80
2019,03,31,01,43,7.70
2019,03,31,01,44,7.60
2019,03,31,01,45,7.50
2019,03,31,01,46,7.40
2019,03,31,01,47,7.40
2019,03,31,01,48,7.40
2019,03,31,01,49,7.40
2019,03,31,01,50,7.40
2019,03,31,01,51,7.10
2019,03,31,01,52,6.90
2019,03,31,01,53,6.90
2019,03,31,01,54,6.80
2019,03,31,01,55,6.80
2019,03,31,01,56,6.70
2019,03,31,01,57,6.70
2019,03,31,01,58,6.60
2019,03,31,01,59,6.60
2019,03,31,02,00,6.60
2019,03,31,02,01,6.60
2019,03,31,02,02,6.50
2019,03,31,02,03,6.50
2019,03,31,02,04,6.50
2019,03,31,02,05,6.40
2019,03,31,02,06,6.40
2019,03,31,02,07,6.40
2019,03,31,02,08,6.40
2019,03,31,02,09,6.40
2019,03,31,02,10,6.40
2019,03,31,02,11,6.30
2019,03,31,02,12,6.30
2019,03,31,02,13,6.30
2019,03,31,02,14,6.30
2019,03,31,02,15,6.30
2019,03,31,02,16,6.30
2019,03,31,02,17,6.20
2019,03,31,02,18,6.20
2019,03,31,02,19,6.20
2019,03,31,02,20,6.20
2019,03,31,02,21,6.20
2019,03,31,02,22,6.10
2019,03,31,02,23,6.10
2019,03,31,02,24,6.10
2019,03,31,02,25,6.10
2019,03,31,02,26,6.10
2019,03,31,02,27,6.00
2019,03,31,02,28,6.00
2019,03,31,02,29,6.00
2019,03,31,02,30,5.90
2019,03,31,02,31,5.90
2019,03,31,02,32,5.90
2019,03,31,02,33,5.90
2019,03,31,02,34,5.90
2019,03,31,02,35,5.80
2019,03,31,02,36,5.80
2019,03,31,02,37,5.80
2019,03,31,02,38,5.80
2019,03,31,02,39,5.80
2019,03,31,02,40,5.80
2019,03,31,02,41,5.80
2019,03,31,02,42,5.80
2019,03,31,02,43,5.80
2019,03,31,02,44,5.80
2019,03,31,02,45,5.80
2019,03,31,02,46,5.80
2019,03,31,02,47,5.80
2019,03,31,02,48,5.80
2019,03,31,02,49,5.70
2019,03,31,02,50,5.70
2019,03,31,02,51,5.70
2019,03,31,02,52,5.70
2019,03,31,02,53,5.70
2019,03,31,02,54,5.60
2019,03,31,02,55,5.60
2019,03,31,02,56,5.60
2019,03,31,02,57,5.60
2019,03,31,02,58,5.50
2019,03,31,02,59,5.50
2019,03,31,03,00,5.50
2019,03,31,03,01,5.40
2019,03,31,03,02,5.40
2019,03,31,03,03,5.40
2019,03,31,03,04,5.40
2019,03,31,03,05,5.40
2019,03,31,03,06,5.40
2019,03,31,03,07,5.30
2019,03,31,03,08,5.30
2019,03,31,03,09,5.30
2019,03,31,03,10,5.30
2019,03,31,03,11,5.30
2019,03,31,03,12,5.30
2019,03,31,03,13,5.30
2019,03,31,03,14,5.30
2019,03,31,03,15,5.30
2019,03,31,03,16,5.30
2019,03,31,03,17,5.30
2019,03,31,03,18,5.30
2019,03,31,03,19,5.30
2019,03,31,03,20,5.20
2019,03,31,03,21,5.20
2019,03,31,03,22,5.20
2019,03,31,03,23,5.20
2019,03,31,03,24,5.20
2019,03,31,03,25,5.20
2019,03,31,03,26,5.20
2019,03,31,03,27,5.20
2019,03,31,03,28,5.20
2019,03,31,03,29,5.10
2019,03,31,03,30,5.10
2019,03,31,03,31,5.10
2019,03,31,03,32,5.10
2019,03,31,03,33,5.10
2019,03,31,03,34,5.10
2019,03,31,03,35,5.10
2019,03,31,03,36,5.10
2019,03,31,03,37,5.10
2019,03,31,03,38,5.10
2019,03,31,03,39,5.10
2019,03,31,03,40,5.10
2019,03,31,03,41,5.10
2019,03,31,03,42,5.10
2019,03,31,03,43,5.10
2019,03,31,03,44,5.10
2019,03,31,03,45,5.10
2019,03,31,03,46,5.10
2019,03,31,03,47,5.10
2019,03,31,03,48,5.10
2019,03,31,03,49,5.10
2019,03,31,03,50,5.10
2019,03,31,03,51,5.10
2019,03,31,03,52,5.10
2019,03,31,03,53,5.10
2019,03,31,03,54,5.10
2019,03,31,03,55,5.10
2019,03,31,03,56,5.10
2019,03,31,03,57,5.10
2019,03,31,03,58,5.10
2019,03,31,03,59,5.10
2019,03,31,04,00,5.00
2019,03,31,04,01,5.00
2019,03,31,04,02,5.00
2019,03,31,04,03,5.00
2019,03,31,04,04,5.00
2019,03,31,04,05,5.00
2019,03,31,04,06,5.00
2019,03,31,04,07,5.00
2019,03,31,04,08,5.00
2019,03,31,04,09,5.00
2019,03,31,04,10,5.00
2019,03,31,04,11,5.00
2019,03,31,04,12,4.90
2019,03,31,04,13,4.90
2019,03,31,04,14,4.90
2019,03,31,04,15,4.90
2019,03,31,04,16,4.90
2019,03,31,04,17,4.90
2019,03,31,04,18,5.00
2019,03,31,04,19,5.00
2019,03,31,04,20,5.00
2019,03,31,04,21,5.10
2019,03,31,04,22,5.10
2019,03,31,04,23,5.10
2019,03,31,04,24,5.10
2019,03,31,04,25,5.10
2019,03,31,04,26,5.00
2019,03,31,04,27,5.00
2019,03,31,04,28,5.00
2019,03,31,04,29,5.00
2019,03,31,04,30,4.90
2019,03,31,04,31,4.90
2019,03,31,04,32,4.90
2019,03,31,04,33,4.90
2019,03,31,04,34,4.90
2019,03,31,04,35,4.90
2019,03,31,04,36,4.90
2019,03,31,04,37,4.80
2019,03,31,04,38,4.80
2019,03,31,04,39,4.80
2019,03,31,04,40,4.80
2019,03,31,04,41,4.80
2019,03,31,04,42,4.80
2019,03,31,04,43,4.80
2019,03,31,04,44,4.80
2019,03,31,04,45,4.80
2019,03,31,04,46,4.80
2019,03,31,04,47,4.80
2019,03,31,04,48,4.80
2019,03,31,04,49,4.80
2019,03,31,04,50,4.80
2019,03,31,04,51,4.80
2019,03,31,04,52,4.80
2019,03,31,04,53,4.80
2019,03,31,04,54,4.80
2019,03,31,04,55,4.80
2019,03,31,04,56,4.80
2019,03,31,04,57,4.80
2019,03,31,04,58,4.80
2019,03,31,04,59,4.70
2019,03,31,05,00,4.70
2019,03,31,05,01,4.70
2019,03,31,05,02,4.70
2019,03,31,05,03,4.70
2019,03,31,05,04,4.70
2019,03,31,05,05,4.60
2019,03,31,05,06,4.60
2019,03,31,05,07,4.60
2019,03,31,05,08,4.60
2019,03,31,05,09,4.60
2019,03,31,05,10,4.60
2019,03,31,05,11,4.60
2019,03,31,05,12,4.60
2019,03,31,05,13,4.60
2019,03,31,05,14,4.60
2019,03,31,05,15,4.60
2019,03,31,05,16,4.60
2019,03,31,05,17,4.50
2019,03,31,05,18,4.50
2019,03,31,05,19,4.50
2019,03,31,05,20,4.50
2019,03,31,05,21,4.50
2019,03,31,05,22,4.50
2019,03,31,05,23,4.40
2019,03,31,05,24,4.40
2019,03,31,05,25,4.40
2019,03,31,05,26,4.40
2019,03,31,05,27,4.40
2019,03,31,05,28,4.40
2019,03,31,05,29,4.40
2019,03,31,05,30,4.40
2019,03,31,05,31,4.40
2019,03,31,05,32,4.30
2019,03,31,05,33,4.30
2019,03,31,05,34,4.30
2019,03,31,05,35,4.30
2019,03,31,05,36,4.30
2019,03,31,05,37,4.30
2019,03,31,05,38,4.30
2019,03,31,05,39,4.20
2019,03,31,05,40,4.20
2019,03,31,05,41,4.20
2019,03,31,05,42,4.20
2019,03,31,05,43,4.20
2019,03,31,05,44,4.20
2019,03,31,05,45,4.10
2019,03,31,05,46,4.10
2019,03,31,05,47,4.10
2019,03,31,05,48,4.10
2019,03,31,05,49,4.10
2019,03,31,05,50,4.10
2019,03,31,05,51,4.10
2019,03,31,05,52,4.10
2019,03,31,05,53,4.10
2019,03,31,05,54,4.10
2019,03,31,05,55,4.00
2019,03,31,05,56,4.00
2019,03,31,05,57,4.00
2019,03,31,05,58,4.00
2019,03,31,05,59,4.00
2019,03,31,06,00,4.00
2019,03,31,06,01,4.00
2019,03,31,06,02,3.90
2019,03,31,06,03,3.90
2019,03,31,06,04,3.90
2019,03,31,06,05,3.90
2019,03,31,06,06,3.90
2019,03,31,06,07,4.00
2019,03,31,06,08,4.00
2019,03,31,06,09,4.00
2019,03,31,06,10,4.00
2019,03,31,06,11,4.00
2019,03,31,06,12,3.90
2019,03,31,06,13,3.90
2019,03,31,06,14,3.90
2019,03,31,06,15,3.90
2019,03,31,06,16,4.00
2019,03,31,06,17,4.00
2019,03,31,06,18,4.00
2019,03,31,06,19,4.10
2019,03,31,06,20,4.10
2019,03,31,06,21,4.10
2019,03,31,06,22,4.10
2019,03,31,06,23,4.10
2019,03,31,06,24,4.10
2019,03,31,06,25,4.10
2019,03,31,06,26,4.10
2019,03,31,06,27,4.10
2019,03,31,06,28,4.10
2019,03,31,06,29,4.10
2019,03,31,06,30,4.10
2019,03,31,06,31,4.10
2019,03,31,06,32,4.10
2019,03,31,06,33,4.10
2019,03,31,06,34,4.10
2019,03,31,06,35,4.00
2019,03,31,06,36,4.00
2019,03,31,06,37,4.00
2019,03,31,06,38,4.00
2019,03,31,06,39,4.00
2019,03,31,06,40,4.00
2019,03,31,06,41,4.00
2019,03,31,06,42,4.00
2019,03,31,06,43,4.00
2019,03,31,06,44,4.00
2019,03,31,06,45,4.00
2019,03,31,06,46,4.00
2019,03,31,06,47,4.00
2019,03,31,06,48,4.00
2019,03,31,06,49,4.00
2019,03,31,06,50,4.00
2019,03,31,06,51,4.00
2019,03,31,06,52,4.00
2019,03,31,06,53,4.00
2019,03,31,06,54,4.00
2019,03,31,06,55,4.10
2019,03,31,06,56,4.10
2019,03,31,06,57,4.20
2019,03,31,06,58,4.20
2019,03,31,06,59,4.20
2019,03,31,07,00,4.20
2019,03,31,07,01,4.20
2019,03,31,07,02,4.20
2019,03,31,07,03,4.20
2019,03,31,07,04,4.10
2019,03,31,07,05,4.10
2019,03,31,07,06,4.10
2019,03,31,07,07,4.10
2019,03,31,07,08,4.00
2019,03,31,07,09,4.00
2019,03,31,07,10,4.00
2019,03,31,07,11,4.00
2019,03,31,07,12,4.00
2019,03,31,07,13,3.90
2019,03,31,07,14,3.90
2019,03,31,07,15,3.90
2019,03,31,07,16,3.90
2019,03,31,07,17,4.00
2019,03,31,07,18,4.00
2019,03,31,07,19,4.10
2019,03,31,07,20,4.10
2019,03,31,07,21,4.10
2019,03,31,07,22,4.10
2019,03,31,07,23,4.10
2019,03,31,07,24,4.10
2019,03,31,07,25,4.20
2019,03,31,07,26,4.20
2019,03,31,07,27,4.20
2019,03,31,07,28,4.20
2019,03,31,07,29,4.20
2019,03,31,07,30,4.20
2019,03,31,07,31,4.20
2019,03,31,07,32,4.20
2019,03,31,07,33,4.30
2019,03,31,07,34,4.30
2019,03,31,07,35,4.30
2019,03,31,07,36,4.30
2019,03,31,07,37,4.30
2019,03,31,07,38,4.30
2019,03,31,07,39,4.40
2019,03,31,07,40,4.40
2019,03,31,07,41,4.40
2019,03,31,07,42,4.50
2019,03,31,07,43,4.50
2019,03,31,07,44,4.60
2019,03,31,07,45,4.60
2019,03,31,07,46,4.60
2019,03,31,07,47,4.70
2019,03,31,07,48,4.70
2019,03,31,07,49,4.70
2019,03,31,07,50,4.80
2019,03,31,07,51,4.80
2019,03,31,07,52,4.80
2019,03,31,07,53,4.90
2019,03,31,07,54,4.90
2019,03,31,07,55,5.00
2019,03,31,07,56,5.00
2019,03,31,07,57,5.10
2019,03,31,07,58,5.10
2019,03,31,07,59,5.20
2019,03,31,08,00,5.30
2019,03,31,08,01,5.40
2019,03,31,08,02,5.40
2019,03,31,08,03,5.50
2019,03,31,08,04,5.60
2019,03,31,08,05,5.70
2019,03,31,08,06,5.80
2019,03,31,08,07,5.80
2019,03,31,08,08,5.90
2019,03,31,08,09,6.00
2019,03,31,08,10,6.10
2019,03,31,08,11,6.20
2019,03,31,08,12,6.20
2019,03,31,08,13,6.30
2019,03,31,08,14,6.30
2019,03,31,08,15,6.40
2019,03,31,08,16,6.40
2019,03,31,08,17,6.50
2019,03,31,08,18,6.60
2019,03,31,08,19,6.60
2019,03,31,08,20,6.70
2019,03,31,08,21,6.90
2019,03,31,08,22,7.00
2019,03,31,08,23,7.10
2019,03,31,08,24,7.20
2019,03,31,08,25,7.30
2019,03,31,08,26,7.40
2019,03,31,08,27,7.50
2019,03,31,08,28,7.70
2019,03,31,08,29,7.90
2019,03,31,08,30,8.00
2019,03,31,08,31,8.20
2019,03,31,08,32,8.30
2019,03,31,08,33,8.40
2019,03,31,08,34,8.50
2019,03,31,08,35,8.70
2019,03,31,08,36,8.80
2019,03,31,08,37,9.00
2019,03,31,08,38,9.10
2019,03,31,08,39,9.20
2019,03,31,08,40,9.30
2019,03,31,08,41,9.40
2019,03,31,08,42,9.50
2019,03,31,08,43,9.60
2019,03,31,08,44,9.60
2019,03,31,08,45,9.70
2019,03,31,08,46,9.80
2019,03,31,08,47,9.80
2019,03,31,08,48,9.90
2019,03,31,08,49,10.00
2019,03,31,08,50,10.10
2019,03,31,08,51,10.10
2019,03,31,08,52,10.20
2019,03,31,08,53,10.20
2019,03,31,08,54,10.30
2019,03,31,08,55,10.30
2019,03,31,08,56,10.40
2019,03,31,08,57,10.40
2019,03,31,08,58,10.50
2019,03,31,08,59,10.60
2019,03,31,09,00,10.70
2019,03,31,09,01,10.70
2019,03,31,09,02,10.80
2019,03,31,09,03,10.80
2019,03,31,09,04,10.80
2019,03,31,09,05,10.80
2019,03,31,09,06,10.80
2019,03,31,09,07,10.80
2019,03,31,09,08,10.80
2019,03,31,09,09,10.80
2019,03,31,09,10,10.80
2019,03,31,09,11,10.80
2019,03,31,09,12,10.90
2019,03,31,09,13,10.90
2019,03,31,09,14,10.90
2019,03,31,09,15,11.00
2019,03,31,09,16,11.00
2019,03,31,09,17,11.10
2019,03,31,09,18,11.10
2019,03,31,09,19,11.20
2019,03,31,09,20,11.30
2019,03,31,09,21,11.40
2019,03,31,09,22,11.50
2019,03,31,09,23,11.50
2019,03,31,09,24,11.60
2019,03,31,09,25,11.60
2019,03,31,09,26,11.60
2019,03,31,09,27,11.60
2019,03,31,09,28,11.50
2019,03,31,09,29,11.60
2019,03,31,09,30,11.60
2019,03,31,09,31,11.60
2019,03,31,09,32,11.60
2019,03,31,09,33,11.60
2019,03,31,09,34,11.60
2019,03,31,09,35,11.60
2019,03,31,09,36,11.60
2019,03,31,09,37,11.50
2019,03,31,09,38,11.50
2019,03,31,09,39,11.40
2019,03,31,09,40,11.40
2019,03,31,09,41,11.30
2019,03,31,09,42,11.30
2019,03,31,09,43,11.20
2019,03,31,09,44,11.20
2019,03,31,09,45,11.20
2019,03,31,09,46,11.20
2019,03,31,09,47,11.20
2019,03,31,09,48,11.20
2019,03,31,09,49,11.20
2019,03,31,09,50,11.20
2019,03,31,09,51,11.10
2019,03,31,09,52,11.20
2019,03,31,09,53,11.20
2019,03,31,09,54,11.20
2019,03,31,09,55,11.30
2019,03,31,09,56,11.30
2019,03,31,09,57,11.30
2019,03,31,09,58,11.30
2019,03,31,09,59,11.30
2019,03,31,10,00,11.20
2019,03,31,10,01,11.20
2019,03,31,10,02,11.20
2019,03,31,10,03,11.10
2019,03,31,10,04,11.20
2019,03,31,10,05,11.20
2019,03,31,10,06,11.20
2019,03,31,10,07,11.20
2019,03,31,10,08,11.20
2019,03,31,10,09,11.20
2019,03,31,10,10,11.20
2019,03,31,10,11,11.20
2019,03,31,10,12,11.20
2019,03,31,10,13,11.20
2019,03,31,10,14,11.20
2019,03,31,10,15,11.20
2019,03,31,10,16,11.20
2019,03,31,10,17,11.20
2019,03,31,10,18,11.20
2019,03,31,10,19,11.20
2019,03,31,10,20,11.20
2019,03,31,10,21,11.20
2019,03,31,10,22,11.20
2019,03,31,10,23,11.20
2019,03,31,10,24,11.20
2019,03,31,10,25,11.20
2019,03,31,10,26,11.20
2019,03,31,10,27,11.20
2019,03,31,10,28,11.20
2019,03,31,10,29,11.20
2019,03,31,10,30,11.20
2019,03,31,10,31,11.20
2019,03,31,10,32,11.20
2019,03,31,10,33,11.20
2019,03,31,10,34,11.20
2019,03,31,10,35,11.20
2019,03,31,10,36,11.20
2019,03,31,10,37,11.20
2019,03,31,10,38,11.20
2019,03,31,10,39,11.20
2019,03,31,10,40,11.20
2019,03,31,10,41,11.20
2019,03,31,10,42,11.20
2019,03,31,10,43,11.20
2019,03,31,10,44,11.20
2019,03,31,10,45,11.20
2019,03,31,10,46,11.20
2019,03,31,10,47,11.20
2019,03,31,10,48,11.10
2019,03,31,10,49,11.10
2019,03,31,10,50,11.10
2019,03,31,10,51,11.10
2019,03,31,10,52,11.00
2019,03,31,10,53,11.00
2019,03,31,10,54,11.00
2019,03,31,10,55,11.00
2019,03,31,10,56,10.90
2019,03,31,10,57,10.90
2019,03,31,10,58,10.90
2019,03,31,10,59,10.90
2019,03,31,11,00,10.90
2019,03,31,11,01,10.90
2019,03,31,11,02,10.90
2019,03,31,11,03,11.00
2019,03,31,11,04,10.90
2019,03,31,11,05,11.00
2019,03,31,11,06,10.90
2019,03,31,11,07,10.90
2019,03,31,11,08,10.90
2019,03,31,11,09,10.90
2019,03,31,11,10,10.90
2019,03,31,11,11,10.80
2019,03,31,11,12,10.90
2019,03,31,11,13,10.90
2019,03,31,11,14,10.90
2019,03,31,11,15,10.90
2019,03,31,11,16,10.90
2019,03,31,11,17,10.90
2019,03,31,11,18,10.90
2019,03,31,11,19,10.90
2019,03,31,11,20,10.90
2019,03,31,11,21,11.00
2019,03,31,11,22,11.00
2019,03,31,11,23,11.00
2019,03,31,11,24,11.00
2019,03,31,11,25,11.10
2019,03,31,11,26,11.10
2019,03,31,11,27,11.10
2019,03,31,11,28,11.10
2019,03,31,11,29,11.20
2019,03,31,11,30,11.20
2019,03,31,11,31,11.20
2019,03,31,11,32,11.20
2019,03,31,11,33,11.20
2019,03,31,11,34,11.20
2019,03,31,11,35,11.20
2019,03,31,11,36,11.20
2019,03,31,11,37,11.20
2019,03,31,11,38,11.20
2019,03,31,11,39,11.20
2019,03,31,11,40,11.10
2019,03,31,11,41,11.10
2019,03,31,11,42,11.10
2019,03,31,11,43,11.10
2019,03,31,11,44,11.10
2019,03,31,11,45,11.10
2019,03,31,11,46,11.20
2019,03,31,11,47,11.20
2019,03,31,11,48,11.20
2019,03,31,11,49,11.20
2019,03,31,11,50,11.10
2019,03,31,11,51,11.10
2019,03,31,11,52,11.10
2019,03,31,11,53,11.10
2019,03,31,11,54,11.10
2019,03,31,11,55,11.10
2019,03,31,11,56,11.10
2019,03,31,11,57,11.10
2019,03,31,11,58,11.10
2019,03,31,11,59,11.20
2019,03,31,12,00,11.30
2019,03,31,12,01,11.30
2019,03,31,12,02,11.30
2019,03,31,12,03,11.30
2019,03,31,12,04,11.40
2019,03,31,12,05,11.30
2019,03,31,12,06,11.30
2019,03,31,12,07,11.30
2019,03,31,12,08,11.30
2019,03,31,12,09,11.30
2019,03,31,12,10,11.30
2019,03,31,12,11,11.30
2019,03,31,12,12,11.30
2019,03,31,12,13,11.30
2019,03,31,12,14,11.30
2019,03,31,12,15,11.40
2019,03,31,12,16,11.40
2019,03,31,12,17,11.40
2019,03,31,12,18,11.40
2019,03,31,12,19,11.50
2019,03,31,12,20,11.60
2019,03,31,12,21,11.60
2019,03,31,12,22,11.70
2019,03,31,12,23,11.70
2019,03,31,12,24,11.80
2019,03,31,12,25,11.70
2019,03,31,12,26,11.70
2019,03,31,12,27,11.70
2019,03,31,12,28,11.60
2019,03,31,12,29,11.60
2019,03,31,12,30,11.60
2019,03,31,12,31,11.60
2019,03,31,12,32,11.60
2019,03,31,12,33,11.60
2019,03,31,12,34,11.60
2019,03,31,12,35,11.60
2019,03,31,12,36,11.60
2019,03,31,12,37,11.60
2019,03,31,12,38,11.60
2019,03,31,12,39,11.60
2019,03,31,12,40,11.50
2019,03,31,12,41,11.50
2019,03,31,12,42,11.50
2019,03,31,12,43,11.50
2019,03,31,12,44,11.50
2019,03,31,12,45,11.50
2019,03,31,12,46,11.50
2019,03,31,12,47,11.50
2019,03,31,12,48,11.50
2019,03,31,12,49,11.50
2019,03,31,12,50,11.60
2019,03,31,12,51,11.60
2019,03,31,12,52,11.60
2019,03,31,12,53,11.60
2019,03,31,12,54,11.60
2019,03,31,12,55,11.70
2019,03,31,12,56,11.70
2019,03,31,12,57,11.70
2019,03,31,12,58,11.80
2019,03,31,12,59,11.90
2019,03,31,13,00,12.00
2019,03,31,13,01,12.00
2019,03,31,13,02,12.10
2019,03,31,13,03,12.20
2019,03,31,13,04,12.30
2019,03,31,13,05,12.30
2019,03,31,13,06,12.40
2019,03,31,13,07,12.40
2019,03,31,13,08,12.50
2019,03,31,13,09,12.50
2019,03,31,13,10,12.60
2019,03,31,13,11,12.60
2019,03,31,13,12,12.60
2019,03,31,13,13,12.60
2019,03,31,13,14,12.70
2019,03,31,13,15,12.70
2019,03,31,13,16,12.70
2019,03,31,13,17,12.70
2019,03,31,13,18,12.70
2019,03,31,13,19,12.70
2019,03,31,13,20,12.70
2019,03,31,13,21,12.70
2019,03,31,13,22,12.70
2019,03,31,13,23,12.70
2019,03,31,13,24,12.70
2019,03,31,13,25,12.70
2019,03,31,13,26,12.70
2019,03,31,13,27,12.70
2019,03,31,13,28,12.70
2019,03,31,13,29,12.70
2019,03,31,13,30,12.80
2019,03,31,13,31,12.80
2019,03,31,13,32,12.80
2019,03,31,13,33,12.80
2019,03,31,13,34,12.80
2019,03,31,13,35,12.90
2019,03,31,13,36,12.90
2019,03,31,13,37,12.90
2019,03,31,13,38,13.00
2019,03,31,13,39,13.00
2019,03,31,13,40,13.10
2019,03,31,13,41,13.10
2019,03,31,13,42,13.20
2019,03,31,13,43,13.20
2019,03,31,13,44,13.20
2019,03,31,13,45,13.10
2019,03,31,13,46,13.10
2019,03,31,13,47,13.10
2019,03,31,13,48,13.10
2019,03,31,13,49,13.10
2019,03,31,13,50,13.10
2019,03,31,13,51,13.10
2019,03,31,13,52,13.10
2019,03,31,13,53,13.20
2019,03,31,13,54,13.20
2019,03,31,13,55,13.20
2019,03,31,13,56,13.20
2019,03,31,13,57,13.20
2019,03,31,13,58,13.20
2019,03,31,13,59,13.20
2019,03,31,14,00,13.20
2019,03,31,14,01,13.20
2019,03,31,14,02,13.20
2019,03,31,14,03,13.20
2019,03,31,14,04,13.20
2019,03,31,14,05,13.20
2019,03,31,14,06,13.20
2019,03,31,14,07,13.10
2019,03,31,14,08,13.10
2019,03,31,14,09,13.10
2019,03,31,14,10,13.10
2019,03,31,14,11,13.10
2019,03,31,14,12,13.10
2019,03,31,14,13,13.20
2019,03,31,14,14,13.20
2019,03,31,14,15,13.20
2019,03,31,14,16,13.30
2019,03,31,14,17,13.30
2019,03,31,14,18,13.40
2019,03,31,14,19,13.50
2019,03,31,14,20,13.50
2019,03,31,14,21,13.50
2019,03,31,14,22,13.60
2019,03,31,14,23,13.60
2019,03,31,14,24,13.70
2019,03,31,14,25,13.70
2019,03,31,14,26,13.70
2019,03,31,14,27,13.60
2019,03,31,14,28,13.60
2019,03,31,14,29,13.50
2019,03,31,14,30,13.50
2019,03,31,14,31,13.40
2019,03,31,14,32,13.40
2019,03,31,14,33,13.40
2019,03,31,14,34,13.40
2019,03,31,14,35,13.40
2019,03,31,14,36,13.40
2019,03,31,14,37,13.40
2019,03,31,14,38,13.50
2019,03,31,14,39,13.50
2019,03,31,14,40,13.60
2019,03,31,14,41,13.60
2019,03,31,14,42,13.60
2019,03,31,14,43,13.60
2019,03,31,14,44,13.60
2019,03,31,14,45,13.60
2019,03,31,14,46,13.50
2019,03,31,14,47,13.50
2019,03,31,14,48,13.50
2019,03,31,14,49,13.40
2019,03,31,14,50,13.40
2019,03,31,14,51,13.40
2019,03,31,14,52,13.40
2019,03,31,14,53,13.50
2019,03,31,14,54,13.50
2019,03,31,14,55,13.50
2019,03,31,14,56,13.60
2019,03,31,14,57,13.60
2019,03,31,14,58,13.60
2019,03,31,14,59,13.50
2019,03,31,15,00,13.50
2019,03,31,15,01,13.50
2019,03,31,15,02,13.60
2019,03,31,15,03,13.60
2019,03,31,15,04,13.60
2019,03,31,15,05,13.60
2019,03,31,15,06,13.60
2019,03,31,15,07,13.60
2019,03,31,15,08,13.60
2019,03,31,15,09,13.70
2019,03,31,15,10,13.70
2019,03,31,15,11,13.70
2019,03,31,15,12,13.70
2019,03,31,15,13,13.80
2019,03,31,15,14,13.80
2019,03,31,15,15,13.80
2019,03,31,15,16,13.90
2019,03,31,15,17,13.90
2019,03,31,15,18,14.00
2019,03,31,15,19,14.00
2019,03,31,15,20,14.10
2019,03,31,15,21,14.20
2019,03,31,15,22,14.20
2019,03,31,15,23,14.20
2019,03,31,15,24,14.20
2019,03,31,15,25,14.20
2019,03,31,15,26,14.20
2019,03,31,15,27,14.20
2019,03,31,15,28,14.20
2019,03,31,15,29,14.20
2019,03,31,15,30,14.20
2019,03,31,15,31,14.20
2019,03,31,15,32,14.20
2019,03,31,15,33,14.20
2019,03,31,15,34,14.20
2019,03,31,15,35,14.10
2019,03,31,15,36,14.10
2019,03,31,15,37,14.10
2019,03,31,15,38,14.10
2019,03,31,15,39,14.10
2019,03,31,15,40,14.10
2019,03,31,15,41,14.10
2019,03,31,15,42,14.10
2019,03,31,15,43,14.10
2019,03,31,15,44,14.10
2019,03,31,15,45,14.10
2019,03,31,15,46,14.10
2019,03,31,15,47,14.10
2019,03,31,15,48,14.10
2019,03,31,15,49,14.10
2019,03,31,15,50,14.20
2019,03,31,15,51,14.20
2019,03,31,15,52,14.10
2019,03,31,15,53,14.20
2019,03,31,15,54,14.20
2019,03,31,15,55,14.20
2019,03,31,15,56,14.20
2019,03,31,15,57,14.20
2019,03,31,15,58,14.20
2019,03,31,15,59,14.20
2019,03,31,16,00,14.20
2019,03,31,16,01,14.20
2019,03,31,16,02,14.20
2019,03,31,16,03,14.30
2019,03,31,16,04,14.30
2019,03,31,16,05,14.30
2019,03,31,16,06,14.30
2019,03,31,16,07,14.30
2019,03,31,16,08,14.30
2019,03,31,16,09,14.40
2019,03,31,16,10,14.40
2019,03,31,16,11,14.40
2019,03,31,16,12,14.40
2019,03,31,16,13,14.50
2019,03,31,16,14,14.50
2019,03,31,16,15,14.50
2019,03,31,16,16,14.60
2019,03,31,16,17,14.60
2019,03,31,16,18,14.70
2019,03,31,16,19,14.70
2019,03,31,16,20,14.80
2019,03,31,16,21,14.80
2019,03,31,16,22,14.80
2019,03,31,16,23,14.90
2019,03,31,16,24,15.00
2019,03,31,16,25,15.00
2019,03,31,16,26,15.00
2019,03,31,16,27,15.00
2019,03,31,16,28,15.00
2019,03,31,16,29,15.00
2019,03,31,16,30,15.00
2019,03,31,16,31,15.00
2019,03,31,16,32,15.00
2019,03,31,16,33,15.00
2019,03,31,16,34,15.00
2019,03,31,16,35,15.00
2019,03,31,16,36,15.00
2019,03,31,16,37,15.00
2019,03,31,16,38,15.00
2019,03,31,16,39,15.00
2019,03,31,16,40,15.00
2019,03,31,16,41,15.00
2019,03,31,16,42,15.10
2019,03,31,16,43,15.10
2019,03,31,16,44,15.20
2019,03,31,16,45,15.20
2019,03,31,16,46,15.20
2019,03,31,16,47,15.20
2019,03,31,16,48,15.30
2019,03,31,16,49,15.30
2019,03,31,16,50,15.30
2019,03,31,16,51,15.30
2019,03,31,16,52,15.40
2019,03,31,16,53,15.40
2019,03,31,16,54,15.40
2019,03,31,16,55,15.40
2019,03,31,16,56,15.40
2019,03,31,16,57,15.40
2019,03,31,16,58,15.40
2019,03,31,16,59,15.40
2019,03,31,17,00,15.40
2019,03,31,17,01,15.40
2019,03,31,17,02,15.50
2019,03,31,17,03,15.50
2019,03,31,17,04,15.60
2019,03,31,17,05,15.60
2019,03,31,17,06,15.70
2019,03,31,17,07,15.70
2019,03,31,17,08,15.70
2019,03,31,17,09,15.70
2019,03,31,17,10,15.70
2019,03,31,17,11,15.70
2019,03,31,17,12,15.80
2019,03,31,17,13,15.80
2019,03,31,17,14,15.80
2019,03,31,17,15,15.80
2019,03,31,17,16,15.80
2019,03,31,17,17,15.80
2019,03,31,17,18,15.80
2019,03,31,17,19,15.80
2019,03,31,17,20,15.80
2019,03,31,17,21,15.80
2019,03,31,17,22,15.80
2019,03,31,17,23,15.80
2019,03,31,17,24,15.80
2019,03,31,17,25,15.80
2019,03,31,17,26,15.80
2019,03,31,17,27,15.80
2019,03,31,17,28,15.80
2019,03,31,17,29,15.70
2019,03,31,17,30,15.70
2019,03,31,17,31,15.70
2019,03,31,17,32,15.60
2019,03,31,17,33,15.60
2019,03,31,17,34,15.50
2019,03,31,17,35,15.50
2019,03,31,17,36,15.40
2019,03,31,17,37,15.40
2019,03,31,17,38,15.40
2019,03,31,17,39,15.40
2019,03,31,17,40,15.40
2019,03,31,17,41,15.30
2019,03,31,17,42,15.30